Location: Paddlesworth
(51.1000°N, 1.1333°E)
Time: 08:28:56
(UTC+00:00)

Nadezhda 1 Rocket - Pass Details

Date: 11 May 2021
Orbit: 940 x 1006 km, 83.0° (Epoch: 16 June)

Event Time Altitude Azimuth Distance (km) Brightness Sun altitude
Exits shadow 21:19:52 17° 156° (SSE) 2,275 5.3 -13.2°
Maximum altitude 21:24:27 47° 90° (E) 1,287 4.4 -13.6°
Drops below altitude 10° 21:30:22 10° 19° (NNE) 2,725 6.8 -14.2°
Sets 21:32:57 0° 14° (NNE) 3,667 7.7 -14.4°
